Andrews, TX

9:02 PM CDT on April 24, 2017 (GMT -0500)
Andrews

Weather History for KE11 - March, 2013

Change the Weather History Date:

Saturday, March 30, 2013

  Actual Average (KMAF) Record (KMAF)
Temperature  
Mean Temperature 66 °F -  
Max Temperature 85 °F 70 °F 94 °F (1946)
Min Temperature 47 °F 44 °F 17 °F (1987)
Cooling Degree Days 1    
Growing Degree Days 16 (Base 50)    
Moisture  
Dew Point 39 °F    
Average Humidity 50    
Maximum Humidity 99    
Minimum Humidity 10    
Precipitation  
Precipitation 0.00 in - - ()
Sea Level Pressure  
Sea Level Pressure 30.00 in    
Wind  
Wind Speed 7 mph (West)    
Max Wind Speed 14 mph    
Max Gust Speed 24 mph    
Visibility 9 miles    
Events Fog    
Averages and records for this station are not official NWS values.
T = Trace of Precipitation, MM = Missing Value Source: NWS Daily Summary

Daily Weather History Graph

Daily Weather History Graph

Search for Another Location

Airport or City:

Trip Planner

Search our weather history database for the weather conditions in past years. The results will help you decide how hot, cold, wet, or windy it might be!

Date:

Astronomy

Mar. 30, 2013 Rise Set
Actual Time 7:40 AM CDT 8:08 PM CDT
Civil Twilight 7:15 AM CDT 8:33 PM CDT
Nautical Twilight 6:47 AM CDT 9:02 PM CDT
Astronomical Twilight 6:17 AM CDT 9:31 PM CDT
Moon No Moon Rise 9:50 AM CDT (3/30)
Length of Visible Light 13h 17m
Length of Day
12h 28m
Waning Gibbous, 86% of the Moon is Illuminated
Mar 30
Waning Gibbous
Apr 2
Last Quarter
Apr 10
New
Apr 18
First Quarter
Apr 25
Full

Hourly Weather History & Observations

Time (CDT) Temp. Dew Point Humidity Pressure Visibility Wind Dir Wind Speed Gust Speed Precip Events Conditions
12:15 AM 61.2 °F 53.1 °F 75% 30.06 in 10.0 mi South 6.9 mph - N/A   Clear
12:35 AM 60.3 °F 53.4 °F 78% 30.06 in 10.0 mi South 9.2 mph - N/A   Clear
12:55 AM 59.9 °F 53.6 °F 80% 30.06 in 10.0 mi South 11.5 mph - N/A   Clear
1:15 AM 59.9 °F 53.8 °F 80% 30.05 in 10.0 mi South 12.7 mph 17.3 mph N/A   Clear
1:35 AM 59.2 °F 53.8 °F 82% 30.05 in 10.0 mi SSW 12.7 mph - N/A   Clear
1:55 AM 59.0 °F 53.8 °F 83% 30.05 in 10.0 mi SSW 12.7 mph - N/A   Clear
2:15 AM 58.3 °F 53.8 °F 85% 30.04 in 10.0 mi South 8.1 mph - N/A   Clear
2:35 AM 57.6 °F 53.6 °F 87% 30.04 in 10.0 mi SSW 10.4 mph - N/A   Clear
2:55 AM 57.4 °F 53.8 °F 88% 30.04 in 10.0 mi SSW 10.4 mph - N/A   Clear
3:15 AM 57.2 °F 54.0 °F 89% 30.04 in 10.0 mi SSW 11.5 mph - N/A   Clear
3:35 AM 57.2 °F 54.0 °F 89% 30.03 in 10.0 mi SSW 11.5 mph - N/A   Clear
3:55 AM 57.2 °F 54.3 °F 90% 30.03 in 10.0 mi SSW 13.8 mph - N/A   Clear
4:15 AM 57.2 °F 54.1 °F 89% 30.03 in 10.0 mi SSW 11.5 mph - N/A   Clear
4:35 AM 56.7 °F 54.0 °F 91% 30.03 in 10.0 mi South 8.1 mph - N/A   Clear
4:55 AM 56.3 °F 54.0 °F 92% 30.03 in 10.0 mi South 9.2 mph - N/A   Clear
5:15 AM 55.6 °F 53.6 °F 93% 30.03 in 10.0 mi SW 6.9 mph - N/A   Clear
5:35 AM 54.9 °F 53.4 °F 95% 30.03 in 10.0 mi Calm Calm - N/A   Clear
5:55 AM 53.2 °F 52.0 °F 95% 30.03 in 7.0 mi Calm Calm - N/A   Clear
6:15 AM 52.7 °F 51.8 °F 97% 30.03 in 7.0 mi West 4.6 mph - N/A   Clear
6:35 AM 53.1 °F 52.5 °F 98% 30.03 in 7.0 mi West 6.9 mph - N/A   Clear
6:55 AM 53.1 °F 52.2 °F 97% 30.03 in 7.0 mi North 3.5 mph - N/A   Clear
7:15 AM 49.3 °F 48.7 °F 98% 30.04 in 4.0 mi NW 3.5 mph - N/A   Clear
7:35 AM 47.5 °F 47.1 °F 99% 30.04 in 4.0 mi West 4.6 mph - N/A   Clear
7:55 AM 49.5 °F 49.3 °F 99% 30.04 in 0.5 mi Calm Calm - N/A Fog Fog
8:15 AM 49.5 °F 49.3 °F 99% 30.04 in 0.2 mi Calm Calm - N/A Fog Fog
8:35 AM 51.8 °F 51.6 °F 99% 30.06 in 2.5 mi West 5.8 mph - N/A   Mostly Cloudy
8:55 AM 52.3 °F 52.2 °F 99% 30.06 in 4.0 mi West 5.8 mph - N/A   Scattered Clouds
9:15 AM 53.6 °F 53.1 °F 98% 30.06 in 7.0 mi West 4.6 mph - N/A   Scattered Clouds
9:35 AM 55.4 °F 53.6 °F 94% 30.07 in 7.0 mi West 3.5 mph - N/A   Clear
9:55 AM 57.6 °F 54.0 °F 88% 30.07 in 10.0 mi West 4.6 mph - N/A   Clear
10:15 AM 61.0 °F 54.9 °F 80% 30.07 in 10.0 mi West 4.6 mph - N/A   Clear
10:35 AM 64.0 °F 54.7 °F 72% 30.07 in 10.0 mi WNW 5.8 mph - N/A   Clear
10:55 AM 66.9 °F 52.7 °F 60% 30.06 in 10.0 mi NW 5.8 mph - N/A   Clear
11:15 AM 70.3 °F 48.6 °F 46% 30.06 in 10.0 mi NW 6.9 mph - N/A   Clear
11:35 AM 73.0 °F 46.6 °F 39% 30.05 in 10.0 mi North 9.2 mph - N/A   Clear
11:55 AM 75.2 °F 43.0 °F 32% 30.06 in 10.0 mi NNW 6.9 mph - N/A   Clear
12:15 PM 77.2 °F 41.7 °F 28% 30.04 in 10.0 mi NNW 6.9 mph - N/A   Clear
12:35 PM 79.3 °F 36.9 °F 22% 30.04 in 10.0 mi NW 6.9 mph - N/A   Clear
12:55 PM 80.1 °F 31.8 °F 17% 30.04 in 10.0 mi NNW 10.4 mph - N/A   Clear
1:15 PM 81.1 °F 30.9 °F 16% 30.03 in 10.0 mi NW 5.8 mph - N/A   Clear
1:35 PM 82.6 °F 25.3 °F 12% 30.03 in 10.0 mi North 8.1 mph - N/A   Clear
1:55 PM 82.6 °F 24.4 °F 12% 30.02 in 10.0 mi NNW 3.5 mph - N/A   Clear
2:15 PM 81.1 °F 23.5 °F 12% 30.01 in 10.0 mi NNW 4.6 mph - N/A   Clear
2:35 PM 81.1 °F 23.2 °F 12% 30.00 in 10.0 mi Calm Calm - N/A   Clear
2:55 PM 84.0 °F 23.7 °F 11% 29.99 in 10.0 mi North 5.8 mph - N/A   Clear
3:15 PM 83.7 °F 21.6 °F 10% 29.98 in 10.0 mi NW 11.5 mph 16.1 mph N/A   Clear
3:35 PM 83.8 °F 22.1 °F 10% 29.97 in 10.0 mi West 4.6 mph 16.1 mph N/A   Clear
3:55 PM 82.8 °F 22.3 °F 11% 29.96 in 10.0 mi SW 4.6 mph - N/A   Clear
4:15 PM 83.8 °F 22.1 °F 10% 29.96 in 10.0 mi SW 5.8 mph - N/A   Clear
4:35 PM 84.4 °F 21.7 °F 10% 29.95 in 10.0 mi West 4.6 mph - N/A   Clear
4:55 PM 85.3 °F 22.3 °F 10% 29.94 in 10.0 mi WNW 8.1 mph - N/A   Clear
5:15 PM 84.6 °F 21.2 °F 10% 29.93 in 10.0 mi West 3.5 mph 16.1 mph N/A   Clear
5:35 PM 84.4 °F 20.7 °F 10% 29.93 in 10.0 mi West 3.5 mph - N/A   Clear
5:55 PM 83.3 °F 20.1 °F 10% 29.92 in 10.0 mi West 9.2 mph - N/A   Clear
6:15 PM 82.9 °F 21.4 °F 10% 29.92 in 10.0 mi West 11.5 mph - N/A   Clear
6:35 PM 82.4 °F 21.7 °F 11% 29.92 in 10.0 mi WSW 3.5 mph - N/A   Clear
6:55 PM 81.7 °F 24.3 °F 12% 29.92 in 10.0 mi SSW 8.1 mph - N/A   Clear
7:15 PM 81.3 °F 24.3 °F 12% 29.92 in 10.0 mi SW 5.8 mph - N/A   Clear
7:35 PM 79.9 °F 25.5 °F 14% 29.92 in 10.0 mi WSW 5.8 mph - N/A   Clear
7:55 PM 78.6 °F 25.3 °F 14% 29.92 in 10.0 mi SW 5.8 mph - N/A   Clear
8:15 PM 77.4 °F 26.1 °F 15% 29.93 in 10.0 mi WSW 5.8 mph - N/A   Clear
8:35 PM 76.5 °F 25.9 °F 15% 29.93 in 10.0 mi SW 5.8 mph - N/A   Clear
8:55 PM 75.4 °F 26.4 °F 16% 29.93 in 10.0 mi WSW 4.6 mph - N/A   Clear
9:15 PM 74.7 °F 27.1 °F 17% 29.93 in 10.0 mi WSW 4.6 mph - N/A   Clear
9:35 PM 73.8 °F 28.9 °F 19% 29.93 in 10.0 mi West 3.5 mph - N/A   Clear
9:55 PM 73.0 °F 27.7 °F 19% 29.93 in 10.0 mi Calm Calm - N/A   Clear
10:15 PM 71.2 °F 30.6 °F 22% 29.94 in 10.0 mi West 4.6 mph - N/A   Clear
10:35 PM 72.9 °F 27.1 °F 18% 29.95 in 10.0 mi WNW 6.9 mph - N/A   Clear
10:55 PM 72.3 °F 28.4 °F 20% 29.95 in 10.0 mi WNW 4.6 mph - N/A   Clear
11:15 PM 70.2 °F 30.9 °F 23% 29.95 in 10.0 mi West 4.6 mph - N/A   Clear
11:35 PM 75.4 °F 25.5 °F 16% 29.96 in 10.0 mi West 9.2 mph 16.1 mph N/A   Clear
11:55 PM 76.1 °F 27.5 °F 17% 29.97 in 10.0 mi West 13.8 mph 24.2 mph N/A   Scattered Clouds